Regional Weather Roundup
Issued by NWS

Home | Current Version | Previous Version | Graphics & Text | Print | Product List | Glossary On
Versions: 1 2 3 4 5 6 7 8 9 10 11 12 13 14 15 16 17 18 19 20 21 22 23 24 25 26 27 28 29 30 31 32 33 34 35 36 37 38 39 40 41 42 43 44 45 46 47 48 49 50
000
ASUS43 KLOT 270009
RWRIL

ILLINOIS REGIONAL WEATHER ROUNDUP
NATIONAL WEATHER SERVICE CHICAGO/ROMEOVILLE IL
700 PM CDT MON JUN 26 2017

NOTE: "FAIR" INDICATES FEW OR NO CLOUDS BELOW 12,000 FEET WITH NO
SIGNIFICANT WEATHER AND/OR OBSTRUCTIONS TO VISIBILITY.

* THESE STATIONS ARE NOT UNDER NWS QUALITY CONTROL. THEY ALSO MAY NOT
  REPORT WEATHER SUCH AS PRECIPITATION OR FOG.

ILZ001-002-007-009-015-016-024-270100-
NORTHWEST ILLINOIS

CITY           SKY/WX    TMP DP  RH WIND       PRES   REMARKS
MOLINE         SUNNY     72  41  32 N9        30.06S
6HR MIN TEMP:  70; 6HR MAX TEMP:  75;

STERLING*      SUNNY     69  43  38 NW14      30.08R
SAVANNA*       MOSUNNY   69  42  37 NW12      30.08S
$$

ILZ003-004-008-010-011-017-018-270100-
NORTH CENTRAL ILLINOIS

CITY           SKY/WX    TMP DP  RH WIND       PRES   REMARKS
ROCKFORD       MOSUNNY   67  42  40 N18G25    30.08R
6HR MIN TEMP:  66; 6HR MAX TEMP:  72;

FREEPORT*      MOSUNNY   65  43  44 NW12      30.09S
ROCHELLE*      MOSUNNY   66  43  43 N14       30.07R
DE KALB*       MOSUNNY   65  43  45 N13G20    30.07R
PERU*          SUNNY     69  43  39 N17       30.06R
$$

ILZ005-006-012>014-019>023-270100-
NORTHEAST ILLINOIS

CITY           SKY/WX    TMP DP  RH WIND       PRES   REMARKS
CHICAGO-OHARE  PTSUNNY   67  43  41 NW21G26   30.04R
6HR MIN TEMP:  66; 6HR MAX TEMP:  75;

CHICAGO-MIDWAY PTSUNNY   69  43  38 N21       30.04R
6HR MIN TEMP:  69; 6HR MAX TEMP:  74;

AURORA         MOSUNNY   67  43  41 N17       30.06R
6HR MIN TEMP:  67; 6HR MAX TEMP:  74; 6HR PCP: TRACE;

LANSING*       CLOUDY    69  38  32 NW10G18   30.03R
JOLIET*        MOSUNNY   71  42  35 NW5G17    30.04S
WAUKEGAN       PTSUNNY   63  45  51 NW9G17    30.04R
6HR MIN TEMP:  62; 6HR MAX TEMP:  70;

DUPAGE AIRPORT MOSUNNY   66  46  48 NW13      30.05R
6HR MIN TEMP:  66; 6HR MAX TEMP:  72;

WHEELING       CLOUDY    65  45  48 NW18G24   30.06R
6HR MIN TEMP:  64; 6HR MAX TEMP:  72;

MORRIS*        MOSUNNY   70  40  34 NW9       30.03S
ROMEOVILLE*    MOSUNNY   69  37  31 NW17      30.04S
NORTHERLY ISL    N/A     64  48  56 N7          N/A
$$

LMZ740>746-270100-
SOUTHERN LAKE MICHIGAN

STATION/POSITION SKY/WX   TEMP    WIND        PRES    VSBY  WAVE
                          AIR SEA DIR/SP/G                  HT/PER
                          (F)     (DEG/KT/KT) (MB)    (MI)  (FT/S)
SOUTHERN BUOY              60 61  340/ 14/ 16 1016.5S         3/ 5
WILMETTE HARBOR            63 63  310/ 14/ 19   N/A           4/ 4
HARRISON CRIB              64     350/ 19/ 21   N/A
BURNHAM HARBOR             64                   N/A
CALUMET HARBOR             64     340/  8/ 16 1016.5R
BURNS HARBOR               63      40/ 17/ 19 1017.6R
MICHIGAN CITY              61      10/ 17/ 19   N/A
MICHIGAN CITY 6N           62 66  360/ 14/ 19   N/A           4/ 4
ST. JOSEPH                 62 69   10/ 14/ 19 1017.2          3/ 4
$$

ILZ025>027-034>036-040-047-049-050-058-095>099-270100-
WEST-CENTRAL ILLINOIS

CITY           SKY/WX    TMP DP  RH WIND       PRES   REMARKS
QUINCY         SUNNY     71  50  47 W7        30.09S
GALESBURG*     MOSUNNY   67  57  69 NW3       30.08F
MACOMB*        PTSUNNY   65  53  66 NE5       30.10F
JACKSONVILLE*  SUNNY     70  49  45 W9        30.09F
PITTSFIELD*    SUNNY     71  54  55 SW6       30.11S
$$

ILZ028>032-037-038-041>044-048-051>054-059>061-270100-
CENTRAL ILLINOIS

CITY           SKY/WX    TMP DP  RH WIND       PRES   REMARKS
PONTIAC        MOSUNNY   67  52  58 W12       30.07F
BLOOMINGTON    CLOUDY    61  54  77 SW6       30.10S
DECATUR        PTSUNNY   64  50  60 N7        30.11S
PEORIA         CLOUDY    66  55  67 CALM      30.09S
6HR MIN TEMP:  58; 6HR MAX TEMP:  72; 6HR PCP:  0.01;

LACON*         MOSUNNY   68  50  51 W8        30.05F
LINCOLN*       LGT RAIN  60  56  88 NW5       30.12R
SPRINGFIELD    SUNNY     73  50  44 W13       30.09F
6HR MIN TEMP:  62; 6HR MAX TEMP:  75; 6HR PCP: TRACE;

TAYLORVILLE    SUNNY     70  49  47 W6        30.10S
6HR MIN TEMP:  64; 6HR MAX TEMP:  71;

$$

ILZ033-039-045-046-055>057-062-063-270100-
EAST-CENTRAL ILLINOIS

CITY           SKY/WX    TMP DP  RH WIND       PRES   REMARKS
CHAMPAIGN      PTSUNNY   63  48  58 NW13G22   30.10S
RANTOUL*       LGT RAIN  62  54  74 W14       30.09S
MATTOON        CLOUDY    67  51  56 W7        30.09F
PARIS*         MOSUNNY   65  48  54 NW9       30.10R
$$

ILZ079-100>102-270100-
SOUTHWEST ILLINOIS

CITY           SKY/WX    TMP DP  RH WIND       PRES   REMARKS
ALTON          MOSUNNY   70  55  60 CALM      30.10S
BELLEVILLE     CLOUDY    71  56  57 SE5       30.11S
CAHOKIA*       CLOUDY    72  48  42 W7        30.10S
SPARTA*        CLOUDY    70  53  56 CALM      30.10F
$$

ILZ064>066-069>071-074>076-080>082-084>086-088>090-092>094-270100-
SOUTH-CENTRAL ILLINOIS

CITY           SKY/WX    TMP DP  RH WIND       PRES   REMARKS
CARBONDALE     CLOUDY    71  60  68 S5        30.10F
6HR MIN TEMP:  71; 6HR MAX TEMP:  80; 6HR PCP: TRACE;

CAIRO*         CLOUDY    74  57  55 CALM      30.12S
EFFINGHAM*     CLOUDY    71  50  48 W5        30.12S
MT. VERNON     PTSUNNY   68  54  60 NE3       30.10F
CENTRALIA*     PTSUNNY   69  54  58 CALM      30.10F
SALEM*         PTSUNNY   69  52  53 CALM      30.11S
METROPOLIS*    CLOUDY    74  58  57 CALM      30.12S
$$

ILZ067-068-072-073-078-083-087-091-270100-
SOUTHEAST ILLINOIS

CITY           SKY/WX    TMP DP  RH WIND       PRES   REMARKS
LAWRENCEVILLE  PTSUNNY   67  49  52 NW6       30.11F
FLORA*         CLOUDY    69  49  49 CALM      30.11S
FAIRFIELD*     CLOUDY    69  51  52 E3        30.09F
HARRISBURG*    CLOUDY    72  55  56 NE6       30.11R
ROBINSON*      CLOUDY    65  52  62 CALM      30.11S
CARMI*         CLOUDY    68  53  58 NE3       30.10F
$$

ABBREVIATIONS USED IN REMARKS
   TC - TEMPERATURE IN CELSIUS
  WCI - WIND CHILL INDEX
   HX - HEAT INDEX
  VSB - VISIBILITY
$$





USA.gov is the U.S. government's official web portal to all federal, state and local government web resources and services.